Location: Cran-Gévrier
(45.9039°N, 6.1012°E)
Time: 04:30:16
(UTC+00:00)

Cosmos 1709 Rocket - Pass Details

Date: 09 February 2023
Orbit: 948 x 1001 km, 82.9° (Epoch: 29 March)

Event Time Altitude Azimuth Distance (km) Brightness Sun altitude
Rises 18:32:54 0° 351° (N) 3,645 7.1 -17.9°
Reaches altitude 10° 18:35:24 10° 352° (N) 2,690 6.4 -18.3°
Maximum altitude 18:41:34 90° 83° (E) 956 3.9 -19.4°
Drops below altitude 10° 18:47:40 10° 174° (S) 2,663 6.2 -20.4°
Sets 18:50:08 0° 174° (S) 3,606 6.9 -20.9°
